Location: Waco, TX
(31.5480°N, 97.1670°W)
Time: 03:41:03
(UTC-06:00)

ISS - Pass Details

Date: 21 January 2019
Orbit: 404 x 407 km, 51.6° (Epoch: 16 January)

Event Time Altitude Azimuth Distance (km) Brightness Sun altitude
Rises 17:46:16 0° 188° (S) 2,304 0.5 0.5°
Reaches altitude 10° 17:48:58 10° 163° (SSE) 1,450 -0.9 0.0°
Maximum altitude 17:50:55 15° 126° (SE) 1,190 -1.7 -0.4°
Drops below altitude 10° 17:52:52 10° 90° (E) 1,457 -1.6 -0.8°
Enters shadow 17:55:10 - 68° (ENE) 2,170 -0.9 -1.2°
Sets 17:55:35 0° 65° (ENE) 2,321 - -1.3°
